Date String (YYYY-MM-DD hh:mm:ss) UTC,Instrument flags,Ambient pressure (hPa),Sample flow (lpm),Bypass flow (lpm),Sample temperature (°C),Ambient temperature (°C),ASC tube jacket temperature (°C),LED temperature (°C),Box temperature (°C),Sample RH (%),Span deviation,Mass concentration (μg/m³),Mass concentration (μg/m³),Mass concentration (μg/m³)
DateTimeUTC,F1_M11,P_M11,Q1_M11,Q2_M11,T1_M11,T2_M11,T3_M11,T4_M11,T5_M11,U1_M11,ZSPAN_M11,X2_M11,X0_M11,X1_M11
2022-05-31 02:00:00,,0819.4,5.00,0.00,27.1,25.7,00.0,36.1,28.9,13.6,0000.0,0000.75,0001.71,0000.39
2022-05-31 02:01:00,,0819.5,4.99,0.00,27.0,25.7,00.0,36.1,28.8,13.4,0000.0,0000.72,0001.60,0000.39
2022-05-31 02:02:00,,0819.6,5.00,0.00,27.0,25.7,00.0,36.0,28.8,13.5,0000.0,0000.72,0001.42,0000.39
2022-05-31 02:03:00,,0819.5,4.98,0.00,27.0,25.7,00.0,36.0,28.8,13.6,0000.0,0000.74,0001.48,0000.38
2022-05-31 02:04:00,,0819.5,5.01,0.00,27.0,25.6,00.0,36.0,28.8,13.7,0000.0,0000.75,0001.50,0000.37
2022-05-31 02:05:00,,0819.7,5.01,0.00,27.0,25.6,00.0,36.0,28.7,13.8,0000.0,0000.70,0001.37,0000.37
2022-05-31 02:06:00,,0819.7,4.99,0.00,26.9,25.5,00.0,36.0,28.7,14.0,0000.0,0000.69,0001.62,0000.37
2022-05-31 02:07:00,,0819.6,5.01,0.00,26.9,25.5,00.0,36.0,28.7,13.9,0000.0,0000.70,0001.73,0000.36
2022-05-31 02:08:00,,0819.5,5.01,0.00,26.9,25.5,00.0,36.0,28.7,13.8,0000.0,0000.68,0001.68,0000.36
2022-05-31 02:09:00,,0819.6,5.00,0.00,26.9,25.5,00.0,36.0,28.7,13.7,0000.0,0000.68,0001.68,0000.35
2022-05-31 02:10:00,,0819.6,5.01,0.00,26.9,25.5,00.0,35.9,28.7,13.6,0000.0,0000.69,0001.69,0000.35
2022-05-31 02:11:00,,0819.7,5.00,0.00,26.9,25.5,00.0,35.9,28.6,13.6,0000.0,0000.70,0001.73,0000.36
2022-05-31 02:12:00,,0819.7,4.99,0.00,26.9,25.5,00.0,35.9,28.6,13.2,0000.0,0000.71,0002.21,0000.36
2022-05-31 02:13:00,,0819.7,5.00,0.00,26.8,25.5,00.0,35.9,28.6,12.9,0000.0,0000.69,0002.35,0000.36
2022-05-31 02:14:00,,0819.8,5.00,0.00,26.8,25.5,00.0,35.9,28.6,13.1,0000.0,0000.65,0002.27,0000.36
2022-05-31 02:15:00,,0819.8,5.00,0.00,26.8,25.5,00.0,35.9,28.6,13.2,0000.0,0000.62,0002.19,0000.36
2022-05-31 02:16:00,,0819.8,5.00,0.00,26.8,25.5,00.0,35.8,28.6,13.0,0000.0,0000.62,0002.21,0000.35
2022-05-31 02:17:00,,0819.9,5.00,0.00,26.8,25.4,00.0,35.8,28.6,13.0,0000.0,0000.61,0001.95,0000.35
2022-05-31 02:18:00,,0819.9,5.01,0.00,26.8,25.4,00.0,35.8,28.6,13.0,0000.0,0000.59,0001.75,0000.34
2022-05-31 02:19:00,,0819.9,5.00,0.00,26.8,25.4,00.0,35.8,28.6,13.2,0000.0,0000.58,0001.72,0000.34
2022-05-31 02:20:00,,0819.9,4.99,0.00,26.8,25.4,00.0,35.8,28.6,13.0,0000.0,0000.58,0001.73,0000.33
2022-05-31 02:21:00,,0819.9,5.00,0.00,26.8,25.4,00.0,35.8,28.6,12.7,0000.0,0000.56,0002.11,0000.32
2022-05-31 02:22:00,,0819.9,5.00,0.00,26.8,25.4,00.0,35.8,28.6,12.5,0000.0,0000.56,0002.18,0000.31
2022-05-31 02:23:00,,0819.9,5.00,0.00,26.7,25.4,00.0,35.8,28.6,12.2,0000.0,0000.52,0001.61,0000.30
2022-05-31 02:24:00,,0820.0,5.00,0.00,26.7,25.4,00.0,35.8,28.5,12.3,0000.0,0000.52,0001.57,0000.31
2022-05-31 02:25:00,,0819.9,5.00,0.00,26.7,25.4,00.0,35.8,28.5,12.2,0000.0,0000.59,0001.75,0000.31
2022-05-31 02:26:00,,0820.1,5.00,0.00,26.7,25.4,00.0,35.7,28.5,12.0,0000.0,0000.59,0001.77,0000.31
2022-05-31 02:27:00,,0820.2,4.99,0.00,26.7,25.4,00.0,35.7,28.5,12.3,0000.0,0000.59,0001.88,0000.30
2022-05-31 02:28:00,,0820.2,5.00,0.00,26.7,25.4,00.0,35.7,28.6,12.4,0000.0,0000.58,0001.86,0000.30
2022-05-31 02:29:00,,0820.2,5.00,0.00,26.7,25.4,00.0,35.7,28.6,12.3,0000.0,0000.60,0001.92,0000.30
2022-05-31 02:30:00,,0820.2,5.00,0.00,26.7,25.4,00.0,35.7,28.6,12.2,0000.0,0000.61,0001.98,0000.31
2022-05-31 02:31:00,,0820.2,5.00,0.00,26.7,25.4,00.0,35.7,28.5,12.1,0000.0,0000.65,0002.06,0000.32
2022-05-31 02:32:00,,0820.3,4.99,0.00,26.7,25.4,00.0,35.7,28.5,12.3,0000.0,0000.66,0001.68,0000.33
2022-05-31 02:33:00,,0820.3,5.00,0.00,26.7,25.4,00.0,35.7,28.5,12.7,0000.0,0000.68,0002.32,0000.34
2022-05-31 02:34:00,,0820.2,5.01,0.00,26.6,25.5,00.0,35.7,28.5,12.8,0000.0,0000.69,0003.27,0000.34
2022-05-31 02:35:00,,0820.2,5.00,0.00,26.6,25.5,00.0,35.7,28.5,12.8,0000.0,0000.71,0003.25,0000.34
2022-05-31 02:36:00,,0820.3,4.99,0.00,26.6,25.5,00.0,35.7,28.5,12.8,0000.0,0000.67,0003.12,0000.34
2022-05-31 02:37:00,,0820.2,5.00,0.00,26.6,25.5,00.0,35.7,28.5,12.7,0000.0,0000.67,0003.10,0000.35
2022-05-31 02:38:00,,0820.3,5.01,0.00,26.6,25.5,00.0,35.7,28.5,12.8,0000.0,0000.64,0002.91,0000.35
2022-05-31 02:39:00,,0820.3,4.98,0.00,26.7,25.5,00.0,35.6,28.5,12.9,0000.0,0000.66,0003.16,0000.35
2022-05-31 02:40:00,,0820.3,5.01,0.00,26.7,25.6,00.0,35.6,28.6,12.9,0000.0,0000.62,0003.97,0000.35
2022-05-31 02:41:00,,0820.3,5.00,0.00,26.7,25.6,00.0,35.6,28.6,12.9,0000.0,0000.63,0003.98,0000.36
2022-05-31 02:42:00,,0820.3,4.99,0.00,26.7,25.6,00.0,35.6,28.6,12.9,0000.0,0000.62,0004.03,0000.36
2022-05-31 02:43:00,,0820.3,5.00,0.00,26.7,25.7,00.0,35.6,28.6,12.9,0000.0,0000.61,0004.30,0000.35
2022-05-31 02:44:00,,0820.4,5.01,0.00,26.7,25.7,00.0,35.6,28.6,12.9,0000.0,0000.61,0003.93,0000.36
2022-05-31 02:45:00,,0820.4,4.99,0.00,26.7,25.7,00.0,35.6,28.7,12.8,0000.0,0000.61,0002.65,0000.37
2022-05-31 02:46:00,,0820.4,5.01,0.00,26.7,25.7,00.0,35.7,28.7,12.8,0000.0,0000.59,0002.62,0000.37
2022-05-31 02:47:00,,0820.5,5.00,0.00,26.7,25.6,00.0,35.6,28.4,12.9,0000.0,0000.58,0002.56,0000.37
2022-05-31 02:48:00,,0820.5,5.00,0.00,26.4,25.0,00.0,35.6,27.9,13.0,0000.0,0000.58,0002.58,0000.37
2022-05-31 02:49:00,,0820.5,5.00,0.00,26.1,24.5,00.0,35.5,27.4,13.2,0000.0,0000.60,0002.62,0000.37
2022-05-31 02:50:00,,0820.6,5.01,0.00,25.9,24.0,00.0,35.4,27.0,13.5,0000.0,0000.60,0002.55,0000.38
2022-05-31 02:51:00,,0820.5,4.99,0.00,25.6,23.4,00.0,35.3,26.6,13.7,0000.0,0000.63,0001.52,0000.38
2022-05-31 02:52:00,,0820.6,5.01,0.00,25.3,23.1,00.0,35.2,26.4,14.0,0000.0,0000.62,0001.47,0000.37
2022-05-31 02:53:00,,0820.6,5.00,0.00,25.2,22.8,00.0,35.1,26.3,14.0,0000.0,0000.60,0001.38,0000.37
2022-05-31 02:54:00,,0820.5,4.99,0.00,25.0,22.7,00.0,34.9,26.2,13.8,0000.0,0000.60,0001.04,0000.37
2022-05-31 02:55:00,,0820.5,5.00,0.00,24.9,22.4,00.0,34.8,26.0,13.6,0000.0,0000.60,0001.03,0000.37
2022-05-31 02:56:00,,0820.4,5.01,0.00,24.7,22.1,00.0,34.7,25.7,13.6,0000.0,0000.64,0001.11,0000.37
2022-05-31 02:57:00,,0820.4,5.00,0.00,24.5,21.8,00.0,34.6,25.4,13.9,0000.0,0000.67,0001.13,0000.38
2022-05-31 02:58:00,,0820.5,5.01,0.00,24.3,21.6,00.0,34.4,25.2,14.1,0000.0,0000.71,0001.19,0000.39
2022-05-31 02:59:00,,0820.6,4.99,0.00,24.1,21.5,00.0,34.3,25.1,14.4,0000.0,0000.75,0001.27,0000.39
